| time (UTC) | temp F | wind direction | speed MPH | gust MPH | rain 1hr in | rain 24hr in | rain mn in | humidity % | barometer mb |
| 20260509130821 | 0 | 0.0 | 0.0 | 0.00 | 0.00 | 0.00 | 1009.5 | ||
| 20260509130316 | 0 | 0.0 | 0.0 | 0.00 | 0.00 | 0.00 | 1009.5 | ||
| 20260509125813 | 75 | 158 | 0.0 | 0.0 | 0.00 | 0.00 | 0.00 | 95 | 1009.4 |
| 20260509125310 | 75 | 158 | 0.0 | 0.0 | 0.00 | 0.00 | 0.00 | 95 | 1009.2 |
| 20260509124806 | 75 | 158 | 0.0 | 0.0 | 0.00 | 0.00 | 0.00 | 95 | 1009.3 |
| 20260509124303 | 75 | 158 | 0.0 | 0.0 | 0.00 | 0.00 | 0.00 | 95 | 1009.4 |
| 20260509123801 | 75 | 158 | 0.0 | 0.0 | 0.00 | 0.00 | 0.00 | 95 | 1009.4 |
| 20260509123258 | 75 | 158 | 0.0 | 0.0 | 0.00 | 0.00 | 0.00 | 95 | 1009.3 |
| 20260509122754 | 75 | 158 | 0.0 | 0.0 | 0.00 | 0.00 | 0.00 | 95 | 1009.1 |
| 20260509122251 | 75 | 158 | 0.0 | 0.0 | 0.00 | 0.00 | 0.00 | 95 | 1009.2 |
| 20260509121748 | 75 | 158 | 0.0 | 0.0 | 0.00 | 0.00 | 0.00 | 95 | 1009.3 |
| 20260509121245 | 75 | 158 | 0.0 | 0.0 | 0.00 | 0.00 | 0.00 | 95 | 1009.4 |
| 20260509120743 | 75 | 158 | 0.0 | 0.0 | 0.00 | 0.00 | 0.00 | 95 | 1009.1 |
| 20260509120240 | 75 | 158 | 0.0 | 0.0 | 0.00 | 0.00 | 0.00 | 95 | 1009.0 |
| 20260509115738 | 75 | 136 | 0.0 | 0.0 | 0.00 | 0.00 | 0.00 | 95 | 1008.9 |
| 20260509115235 | 75 | 136 | 0.0 | 0.0 | 0.00 | 0.00 | 0.00 | 95 | 1008.7 |
| 20260509114733 | 75 | 136 | 0.0 | 0.0 | 0.00 | 0.00 | 0.00 | 95 | 1008.8 |
| 20260509114232 | 75 | 136 | 0.0 | 0.0 | 0.00 | 0.00 | 0.00 | 95 | 1009.0 |
| 20260509113730 | 75 | 136 | 0.0 | 0.0 | 0.00 | 0.00 | 0.00 | 95 | 1009.1 |
| 20260509113227 | 75 | 136 | 0.0 | 0.0 | 0.00 | 0.00 | 0.00 | 95 | 1009.2 |
| 20260509112724 | 75 | 136 | 0.0 | 0.0 | 0.00 | 0.00 | 0.00 | 95 | 1009.3 |
| 20260509112221 | 75 | 136 | 0.0 | 0.0 | 0.00 | 0.00 | 0.00 | 95 | 1009.3 |
| 20260509111718 | 75 | 138 | 0.0 | 0.0 | 0.00 | 0.00 | 0.00 | 94 | 1009.2 |
| 20260509111215 | 75 | 138 | 0.0 | 0.0 | 0.00 | 0.00 | 0.00 | 94 | 1008.8 |
| 20260509110712 | 0 | 0.0 | 0.0 | 0.00 | 0.00 | 0.00 | 1008.6 | ||
| 20260509110208 | 0 | 0.0 | 0.0 | 0.00 | 0.00 | 0.00 | 1008.6 | ||
| 20260509105707 | 0 | 0.0 | 0.0 | 0.00 | 0.00 | 0.00 | 1008.3 | ||
| 20260509105204 | 0 | 0.0 | 0.0 | 0.00 | 0.00 | 0.00 | 1008.5 | ||
| 20260509104701 | 0 | 0.0 | 0.0 | 0.00 | 0.00 | 0.00 | 1008.5 | ||
| 20260509104158 | 0 | 0.0 | 0.0 | 0.00 | 0.00 | 0.00 | 1008.5 | ||
| 20260509103656 | 0 | 0.0 | 0.0 | 0.00 | 0.00 | 0.00 | 1008.4 | ||
| 20260509103153 | 0 | 0.0 | 0.0 | 0.00 | 0.00 | 0.00 | 1008.7 | ||
| 20260509102651 | 75 | 142 | 0.0 | 0.0 | 0.00 | 0.00 | 0.00 | 94 | 1008.7 |
| 20260509102148 | 75 | 142 | 0.0 | 0.0 | 0.00 | 0.00 | 0.00 | 94 | 1008.6 |
| 20260509101644 | 75 | 142 | 0.0 | 0.0 | 0.00 | 0.00 | 0.00 | 94 | 1008.6 |
| 20260509101141 | 75 | 142 | 0.0 | 0.0 | 0.00 | 0.00 | 0.00 | 94 | 1008.4 |
| 20260509100638 | 75 | 142 | 0.0 | 0.0 | 0.00 | 0.00 | 0.00 | 94 | 1008.5 |
| 20260509100135 | 75 | 142 | 0.0 | 0.0 | 0.00 | 0.00 | 0.00 | 94 | 1008.4 |
| 20260509095632 | 75 | 142 | 0.0 | 0.0 | 0.00 | 0.00 | 0.00 | 94 | 1008.3 |
| 20260509095129 | 75 | 142 | 0.0 | 0.0 | 0.00 | 0.00 | 0.00 | 94 | 1008.2 |
| 20260509094625 | 75 | 142 | 0.0 | 0.0 | 0.00 | 0.00 | 0.00 | 94 | 1008.2 |
| 20260509094123 | 75 | 142 | 0.0 | 0.0 | 0.00 | 0.00 | 0.00 | 94 | 1008.2 |
| 20260509093621 | 75 | 142 | 0.0 | 0.0 | 0.00 | 0.00 | 0.00 | 94 | 1008.1 |
| 20260509093118 | 75 | 142 | 0.0 | 0.0 | 0.00 | 0.00 | 0.00 | 94 | 1008.1 |
| 20260509092615 | 75 | 180 | 0.0 | 0.0 | 0.00 | 0.00 | 0.00 | 94 | 1008.1 |
| 20260509092114 | 75 | 180 | 0.0 | 0.0 | 0.00 | 0.00 | 0.00 | 94 | 1008.1 |
| 20260509091612 | 75 | 180 | 0.0 | 0.0 | 0.00 | 0.00 | 0.00 | 94 | 1008.1 |
| 20260509091107 | 0 | 0.0 | 0.0 | 0.00 | 0.00 | 0.00 | 1008.4 | ||
| 20260509090605 | 0 | 0.0 | 0.0 | 0.00 | 0.00 | 0.00 | 1008.4 | ||
| 20260509085600 | 0 | 0.0 | 0.0 | 0.00 | 0.00 | 0.00 | 1008.5 | ||
| 20260509085056 | 0 | 0.0 | 0.0 | 0.00 | 0.00 | 0.00 | 1008.5 | ||
| 20260509084553 | 0 | 0.0 | 0.0 | 0.00 | 0.00 | 0.00 | 1008.2 | ||
| 20260509084050 | 0 | 0.0 | 0.0 | 0.00 | 0.00 | 0.00 | 1008.1 | ||
| 20260509083548 | 0 | 0.0 | 0.0 | 0.00 | 0.00 | 0.00 | 1008.1 | ||
| 20260509083044 | 0 | 0.0 | 0.0 | 0.00 | 0.00 | 0.00 | 1008.2 | ||
| 20260509082542 | 0 | 0.0 | 0.0 | 0.00 | 0.00 | 0.00 | 1008.1 | ||
| 20260509082038 | 0 | 0.0 | 0.0 | 0.00 | 0.00 | 0.00 | 1008.3 | ||
| 20260509081536 | 0 | 0.0 | 0.0 | 0.00 | 0.00 | 0.00 | 1008.3 | ||
| 20260509081032 | 0 | 0.0 | 0.0 | 0.00 | 0.00 | 0.00 | 1008.4 | ||
| 20260509080530 | 0 | 0.0 | 0.0 | 0.00 | 0.00 | 0.00 | 1008.4 | ||
| 20260509080028 | 0 | 0.0 | 0.0 | 0.00 | 0.00 | 0.00 | 1008.2 | ||
| 20260509075525 | 0 | 0.0 | 0.0 | 0.00 | 0.00 | 0.00 | 1008.1 | ||
| 20260509075023 | 0 | 0.0 | 0.0 | 0.00 | 0.00 | 0.00 | 1008.1 | ||
| 20260509074520 | 0 | 0.0 | 0.0 | 0.00 | 0.00 | 0.00 | 1008.2 | ||
| 20260509074016 | 76 | 151 | 1.0 | 2.0 | 0.00 | 0.00 | 0.00 | 93 | 1008.4 |
| 20260509073513 | 76 | 151 | 1.0 | 2.0 | 0.00 | 0.00 | 0.00 | 93 | 1008.5 |
| 20260509073009 | 76 | 151 | 1.0 | 2.0 | 0.00 | 0.00 | 0.00 | 93 | 1008.7 |
| 20260509072506 | 76 | 151 | 1.0 | 2.0 | 0.00 | 0.00 | 0.00 | 93 | 1008.6 |
| 20260509072003 | 76 | 151 | 1.0 | 2.0 | 0.00 | 0.00 | 0.00 | 93 | 1008.6 |
| 20260509071459 | 76 | 151 | 1.0 | 2.0 | 0.00 | 0.00 | 0.00 | 93 | 1008.8 |
| 20260509070957 | 76 | 151 | 1.0 | 2.0 | 0.00 | 0.00 | 0.00 | 93 | 1009.0 |
| 20260509070454 | 76 | 151 | 1.0 | 2.0 | 0.00 | 0.00 | 0.00 | 93 | 1008.9 |
| 20260509065950 | 76 | 151 | 1.0 | 2.0 | 0.00 | 0.00 | 0.00 | 93 | 1008.9 |
| 20260509065446 | 76 | 151 | 1.0 | 2.0 | 0.00 | 0.00 | 0.00 | 93 | 1008.9 |
| 20260509064942 | 76 | 151 | 1.0 | 2.0 | 0.00 | 0.00 | 0.00 | 93 | 1008.9 |
| 20260509064440 | 76 | 151 | 1.0 | 2.0 | 0.00 | 0.00 | 0.00 | 93 | 1009.0 |
| 20260509063938 | 76 | 146 | 1.0 | 1.0 | 0.00 | 0.00 | 0.00 | 93 | 1008.8 |
| 20260509063438 | 76 | 146 | 1.0 | 1.0 | 0.00 | 0.00 | 0.00 | 93 | 1008.6 |
| 20260509062935 | 76 | 146 | 1.0 | 1.0 | 0.00 | 0.00 | 0.00 | 93 | 1008.6 |
| 20260509062433 | 76 | 142 | 0.0 | 0.0 | 0.00 | 0.00 | 0.00 | 93 | 1008.8 |
| 20260509061930 | 76 | 142 | 0.0 | 0.0 | 0.00 | 0.00 | 0.00 | 93 | 1008.8 |
| 20260509061428 | 76 | 142 | 0.0 | 0.0 | 0.00 | 0.00 | 0.00 | 93 | 1008.8 |
| 20260509060925 | 76 | 142 | 0.0 | 0.0 | 0.00 | 0.00 | 0.00 | 93 | 1008.8 |
| 20260509060422 | 76 | 142 | 0.0 | 0.0 | 0.00 | 0.00 | 0.00 | 93 | 1008.8 |
| 20260509055917 | 76 | 142 | 0.0 | 0.0 | 0.00 | 0.00 | 0.00 | 93 | 1008.9 |
| 20260509055413 | 76 | 115 | 0.0 | 1.0 | 0.00 | 0.00 | 0.00 | 93 | 1009.1 |
| 20260509054910 | 76 | 115 | 0.0 | 1.0 | 0.00 | 0.00 | 0.00 | 93 | 1009.2 |
| 20260509054407 | 76 | 115 | 0.0 | 1.0 | 0.00 | 0.00 | 0.00 | 93 | 1008.8 |
| 20260509053905 | 76 | 151 | 0.0 | 0.0 | 0.00 | 0.00 | 0.00 | 93 | 1008.9 |
| 20260509053402 | 76 | 151 | 0.0 | 0.0 | 0.00 | 0.00 | 0.00 | 93 | 1009.0 |
| 20260509052900 | 76 | 151 | 0.0 | 0.0 | 0.00 | 0.00 | 0.00 | 93 | 1009.1 |
| 20260509052357 | 76 | 148 | 0.0 | 0.0 | 0.00 | 0.00 | 0.00 | 92 | 1009.2 |
| 20260509051855 | 76 | 148 | 0.0 | 0.0 | 0.00 | 0.00 | 0.00 | 92 | 1009.1 |
| 20260509051353 | 76 | 148 | 0.0 | 0.0 | 0.00 | 0.00 | 0.00 | 92 | 1008.9 |
| 20260509050849 | 76 | 148 | 0.0 | 0.0 | 0.00 | 0.00 | 0.00 | 92 | 1009.0 |
| 20260509050346 | 76 | 164 | 0.0 | 0.0 | 0.00 | 0.00 | 0.00 | 92 | 1009.0 |
| 20260509045843 | 76 | 164 | 0.0 | 0.0 | 0.00 | 0.07 | 0.07 | 92 | 1009.1 |
| 20260509045340 | 75 | 169 | 0.0 | 0.0 | 0.00 | 0.07 | 0.07 | 91 | 1009.1 |
| 20260509044837 | 75 | 169 | 0.0 | 0.0 | 0.00 | 0.07 | 0.07 | 91 | 1009.3 |
| 20260509044335 | 75 | 169 | 0.0 | 0.0 | 0.00 | 0.07 | 0.07 | 91 | 1009.1 |
| 20260509043831 | 75 | 169 | 0.0 | 0.0 | 0.00 | 0.07 | 0.07 | 91 | 1009.2 |
| 20260509043327 | 75 | 169 | 0.0 | 0.0 | 0.00 | 0.07 | 0.07 | 91 | 1009.3 |
| 20260509042823 | 75 | 169 | 0.0 | 0.0 | 0.00 | 0.07 | 0.07 | 91 | 1009.4 |
| 20260509042319 | 75 | 169 | 0.0 | 0.0 | 0.00 | 0.07 | 0.07 | 91 | 1009.1 |
| 20260509041816 | 75 | 169 | 0.0 | 0.0 | 0.00 | 0.07 | 0.07 | 91 | 1009.0 |
| 20260509041313 | 75 | 169 | 0.0 | 0.0 | 0.00 | 0.07 | 0.07 | 91 | 1009.2 |
| 20260509040811 | 75 | 169 | 0.0 | 0.0 | 0.00 | 0.07 | 0.07 | 91 | 1008.9 |
| 20260509040308 | 75 | 169 | 0.0 | 0.0 | 0.00 | 0.07 | 0.07 | 91 | 1009.1 |
| 20260509035805 | 75 | 169 | 0.0 | 0.0 | 0.00 | 0.07 | 0.07 | 91 | 1009.1 |
| 20260509035306 | 75 | 145 | 1.0 | 2.0 | 0.00 | 0.07 | 0.07 | 91 | 1009.1 |
| 20260509034759 | 75 | 145 | 1.0 | 2.0 | 0.00 | 0.07 | 0.07 | 91 | 1008.7 |
| 20260509034257 | 75 | 145 | 1.0 | 2.0 | 0.00 | 0.07 | 0.07 | 91 | 1008.8 |
| 20260509033753 | 75 | 145 | 1.0 | 2.0 | 0.00 | 0.07 | 0.07 | 91 | 1008.8 |
| 20260509033250 | 0 | 0.0 | 0.0 | 0.00 | 0.00 | 0.00 | 1008.8 | ||
| 20260509032747 | 0 | 0.0 | 0.0 | 0.00 | 0.00 | 0.00 | 1008.6 | ||
| 20260509032244 | 0 | 0.0 | 0.0 | 0.00 | 0.00 | 0.00 | 1008.8 | ||
| 20260509031742 | 0 | 0.0 | 0.0 | 0.00 | 0.00 | 0.00 | 1008.8 | ||
| 20260509031239 | 0 | 0.0 | 0.0 | 0.00 | 0.00 | 0.00 | 1008.8 | ||
| 20260509030737 | 75 | 102 | 2.0 | 4.0 | 0.00 | 0.07 | 0.07 | 90 | 1008.7 |
| 20260509030234 | 75 | 102 | 2.0 | 4.0 | 0.00 | 0.07 | 0.07 | 90 | 1008.8 |
| 20260509025731 | 75 | 102 | 2.0 | 4.0 | 0.00 | 0.07 | 0.07 | 90 | 1008.7 |
| 20260509025227 | 75 | 102 | 2.0 | 4.0 | 0.00 | 0.07 | 0.07 | 90 | 1008.8 |
| 20260509024722 | 75 | 102 | 2.0 | 4.0 | 0.00 | 0.07 | 0.07 | 90 | 1008.5 |
| 20260509024218 | 75 | 102 | 2.0 | 4.0 | 0.00 | 0.07 | 0.07 | 90 | 1008.3 |
| 20260509023716 | 75 | 102 | 2.0 | 4.0 | 0.00 | 0.07 | 0.07 | 90 | 1008.5 |
| 20260509023213 | 75 | 102 | 2.0 | 4.0 | 0.00 | 0.07 | 0.07 | 90 | 1008.5 |
| 20260509022708 | 75 | 102 | 2.0 | 4.0 | 0.00 | 0.07 | 0.07 | 90 | 1008.6 |
| 20260509022207 | 75 | 102 | 2.0 | 4.0 | 0.00 | 0.07 | 0.07 | 90 | 1008.2 |
| 20260509021703 | 75 | 102 | 2.0 | 4.0 | 0.00 | 0.07 | 0.07 | 90 | 1008.1 |
| 20260509021201 | 75 | 102 | 2.0 | 4.0 | 0.00 | 0.07 | 0.07 | 90 | 1008.2 |
| 20260509020659 | 75 | 130 | 1.0 | 1.0 | 0.00 | 0.07 | 0.07 | 89 | 1007.9 |
| 20260509020155 | 75 | 130 | 1.0 | 1.0 | 0.00 | 0.07 | 0.07 | 89 | 1008.0 |
| 20260509015654 | 75 | 161 | 1.0 | 1.0 | 0.00 | 0.07 | 0.07 | 88 | 1007.9 |
| 20260509015152 | 75 | 161 | 1.0 | 1.0 | 0.00 | 0.07 | 0.07 | 88 | 1008.1 |
| 20260509014648 | 75 | 161 | 1.0 | 1.0 | 0.00 | 0.07 | 0.07 | 88 | 1008.1 |
| 20260509014144 | 75 | 161 | 1.0 | 1.0 | 0.00 | 0.07 | 0.07 | 88 | 1007.9 |
| 20260509013641 | 75 | 161 | 1.0 | 1.0 | 0.00 | 0.07 | 0.07 | 88 | 1007.8 |
| 20260509013137 | 75 | 161 | 1.0 | 1.0 | 0.00 | 0.07 | 0.07 | 88 | 1007.8 |
| 20260509012634 | 75 | 161 | 1.0 | 1.0 | 0.00 | 0.07 | 0.07 | 88 | 1007.8 |
| 20260509012131 | 75 | 161 | 1.0 | 1.0 | 0.00 | 0.07 | 0.07 | 88 | 1008.0 |
| 20260509011629 | 75 | 161 | 1.0 | 1.0 | 0.00 | 0.07 | 0.07 | 88 | 1008.0 |
| 20260509011126 | 75 | 161 | 1.0 | 1.0 | 0.00 | 0.07 | 0.07 | 88 | 1007.9 |
| 20260509010623 | 75 | 161 | 1.0 | 1.0 | 0.42 | 0.07 | 0.07 | 88 | 1008.0 |
| 20260509010120 | 75 | 161 | 1.0 | 1.0 | 0.42 | 0.07 | 0.07 | 88 | 1007.7 |
| 20260509005618 | 0 | 0.0 | 0.0 | 0.00 | 0.00 | 0.00 | 1007.8 | ||
| 20260509005113 | 0 | 0.0 | 0.0 | 0.00 | 0.00 | 0.00 | 1007.9 | ||
| 20260509004610 | 0 | 0.0 | 0.0 | 0.00 | 0.00 | 0.00 | 1007.8 | ||
| 20260509004107 | 0 | 0.0 | 0.0 | 0.00 | 0.00 | 0.00 | 1007.9 | ||
| 20260509003605 | 0 | 0.0 | 0.0 | 0.00 | 0.00 | 0.00 | 1007.8 | ||
| 20260509003102 | 0 | 0.0 | 0.0 | 0.00 | 0.00 | 0.00 | 1007.8 | ||
| 20260509002600 | 0 | 0.0 | 0.0 | 0.00 | 0.00 | 0.00 | 1007.8 | ||
| 20260509002057 | 0 | 0.0 | 0.0 | 0.00 | 0.00 | 0.00 | 1007.6 | ||
| 20260509001554 | 0 | 0.0 | 0.0 | 0.00 | 0.00 | 0.00 | 1008.0 | ||
| 20260509001049 | 0 | 0.0 | 0.0 | 0.00 | 0.00 | 0.00 | 1007.8 | ||
| 20260509000549 | 0 | 0.0 | 0.0 | 0.00 | 0.00 | 0.00 | 1007.9 | ||
| 20260509000044 | 0 | 0.0 | 0.0 | 0.00 | 0.00 | 0.00 | 1007.6 | ||
| 20260508235542 | 0 | 0.0 | 0.0 | 0.00 | 0.00 | 0.00 | 1007.6 | ||
| 20260508235038 | 0 | 0.0 | 0.0 | 0.00 | 0.00 | 0.00 | 1007.8 | ||
| 20260508234535 | 0 | 0.0 | 0.0 | 0.00 | 0.00 | 0.00 | 1008.0 | ||
| 20260508234032 | 0 | 0.0 | 0.0 | 0.00 | 0.00 | 0.00 | 1008.0 | ||
| 20260508233532 | 0 | 0.0 | 0.0 | 0.00 | 0.00 | 0.00 | 1008.1 | ||
| 20260508233029 | 0 | 0.0 | 0.0 | 0.00 | 0.00 | 0.00 | 1008.0 | ||
| 20260508232525 | 0 | 0.0 | 0.0 | 0.00 | 0.00 | 0.00 | 1008.2 | ||
| 20260508232022 | 0 | 0.0 | 0.0 | 0.00 | 0.00 | 0.00 | 1008.3 | ||
| 20260508231520 | 0 | 0.0 | 0.0 | 0.00 | 0.00 | 0.00 | 1008.3 | ||
| 20260508231017 | 0 | 0.0 | 0.0 | 0.00 | 0.00 | 0.00 | 1008.2 | ||
| 20260508230513 | 0 | 0.0 | 0.0 | 0.00 | 0.00 | 0.00 | 1007.9 | ||
| 20260508230010 | 0 | 0.0 | 0.0 | 0.00 | 0.00 | 0.00 | 1008.0 | ||
| 20260508225508 | 0 | 0.0 | 0.0 | 0.00 | 0.00 | 0.00 | 1008.0 | ||
| 20260508225004 | 0 | 0.0 | 0.0 | 0.00 | 0.00 | 0.00 | 1007.9 | ||
| 20260508224502 | 0 | 0.0 | 0.0 | 0.00 | 0.00 | 0.00 | 1008.1 | ||
| 20260508223959 | 0 | 0.0 | 0.0 | 0.00 | 0.00 | 0.00 | 1008.0 | ||
| 20260508223457 | 0 | 0.0 | 0.0 | 0.00 | 0.00 | 0.00 | 1008.0 | ||
| 20260508222954 | 0 | 0.0 | 0.0 | 0.00 | 0.00 | 0.00 | 1008.1 | ||
| 20260508222451 | 0 | 0.0 | 0.0 | 0.00 | 0.00 | 0.00 | 1008.2 | ||
| 20260508221947 | 0 | 0.0 | 0.0 | 0.00 | 0.00 | 0.00 | 1008.1 | ||
| 20260508221444 | 0 | 0.0 | 0.0 | 0.00 | 0.00 | 0.00 | 1008.4 | ||
| 20260508220940 | 0 | 0.0 | 0.0 | 0.00 | 0.00 | 0.00 | 1008.3 | ||
| 20260508220436 | 0 | 0.0 | 0.0 | 0.00 | 0.00 | 0.00 | 1008.1 | ||
| 20260508215933 | 0 | 0.0 | 0.0 | 0.00 | 0.00 | 0.00 | 1008.3 | ||
| 20260508215430 | 0 | 0.0 | 0.0 | 0.00 | 0.00 | 0.00 | 1008.1 | ||
| 20260508214926 | 0 | 0.0 | 0.0 | 0.00 | 0.00 | 0.00 | 1008.1 | ||
| 20260508214424 | 0 | 0.0 | 0.0 | 0.00 | 0.00 | 0.00 | 1008.2 | ||
| 20260508213920 | 0 | 0.0 | 0.0 | 0.00 | 0.00 | 0.00 | 1008.2 | ||
| 20260508213418 | 0 | 0.0 | 0.0 | 0.00 | 0.00 | 0.00 | 1008.6 | ||
| 20260508212913 | 0 | 0.0 | 0.0 | 0.00 | 0.00 | 0.00 | 1008.6 | ||
| 20260508212410 | 0 | 0.0 | 0.0 | 0.00 | 0.00 | 0.00 | 1008.4 | ||
| 20260508211906 | 0 | 0.0 | 0.0 | 0.00 | 0.00 | 0.00 | 1008.7 | ||
| 20260508211401 | 0 | 0.0 | 0.0 | 0.00 | 0.00 | 0.00 | 1008.5 | ||
| 20260508210859 | 0 | 0.0 | 0.0 | 0.00 | 0.00 | 0.00 | 1008.7 | ||
| 20260508210355 | 0 | 0.0 | 0.0 | 0.00 | 0.00 | 0.00 | 1008.5 | ||
| 20260508205852 | 0 | 0.0 | 0.0 | 0.00 | 0.00 | 0.00 | 1008.5 | ||
| 20260508205349 | 0 | 0.0 | 0.0 | 0.00 | 0.00 | 0.00 | 1008.7 | ||
| 20260508204845 | 0 | 0.0 | 0.0 | 0.00 | 0.00 | 0.00 | 1008.5 | ||
| 20260508204342 | 0 | 0.0 | 0.0 | 0.00 | 0.00 | 0.00 | 1008.8 | ||
| 20260508203838 | 0 | 0.0 | 0.0 | 0.00 | 0.00 | 0.00 | 1008.7 | ||
| 20260508203334 | 0 | 0.0 | 0.0 | 0.00 | 0.00 | 0.00 | 1008.9 | ||
| 20260508202830 | 0 | 0.0 | 0.0 | 0.00 | 0.00 | 0.00 | 1009.1 | ||
| 20260508202328 | 0 | 0.0 | 0.0 | 0.00 | 0.00 | 0.00 | 1008.8 | ||
| 20260508201825 | 0 | 0.0 | 0.0 | 0.00 | 0.00 | 0.00 | 1008.7 | ||
| 20260508201322 | 0 | 0.0 | 0.0 | 0.00 | 0.00 | 0.00 | 1008.9 | ||
| 20260508200818 | 0 | 0.0 | 0.0 | 0.00 | 0.00 | 0.00 | 1009.1 | ||
| 20260508200315 | 0 | 0.0 | 0.0 | 0.00 | 0.00 | 0.00 | 1009.2 | ||
| 20260508195811 | 0 | 0.0 | 0.0 | 0.00 | 0.00 | 0.00 | 1009.4 | ||
| 20260508195307 | 0 | 0.0 | 0.0 | 0.00 | 0.00 | 0.00 | 1009.4 | ||
| 20260508194804 | 0 | 0.0 | 0.0 | 0.00 | 0.00 | 0.00 | 1009.4 | ||
| 20260508194301 | 0 | 0.0 | 0.0 | 0.00 | 0.00 | 0.00 | 1009.4 | ||
| 20260508193758 | 0 | 0.0 | 0.0 | 0.00 | 0.00 | 0.00 | 1009.7 | ||
| 20260508193255 | 0 | 0.0 | 0.0 | 0.00 | 0.00 | 0.00 | 1009.7 | ||
| 20260508192751 | 0 | 0.0 | 0.0 | 0.00 | 0.00 | 0.00 | 1010.0 | ||
| 20260508192248 | 0 | 0.0 | 0.0 | 0.00 | 0.00 | 0.00 | 1009.9 | ||
| 20260508191745 | 0 | 0.0 | 0.0 | 0.00 | 0.00 | 0.00 | 1009.9 | ||
| 20260508191242 | 0 | 0.0 | 0.0 | 0.00 | 0.00 | 0.00 | 1009.8 | ||
| 20260508190740 | 0 | 0.0 | 0.0 | 0.00 | 0.00 | 0.00 | 1009.8 | ||
| 20260508190235 | 0 | 0.0 | 0.0 | 0.00 | 0.00 | 0.00 | 1009.9 | ||
| 20260508185732 | 0 | 0.0 | 0.0 | 0.00 | 0.00 | 0.00 | 1009.9 | ||
| 20260508185230 | 0 | 0.0 | 0.0 | 0.00 | 0.00 | 0.00 | 1009.8 | ||
| 20260508184727 | 0 | 0.0 | 0.0 | 0.00 | 0.00 | 0.00 | 1009.9 | ||
| 20260508184224 | 0 | 0.0 | 0.0 | 0.00 | 0.00 | 0.00 | 1009.9 | ||
| 20260508183721 | 0 | 0.0 | 0.0 | 0.00 | 0.00 | 0.00 | 1010.2 | ||
| 20260508183217 | 0 | 0.0 | 0.0 | 0.00 | 0.00 | 0.00 | 1009.8 | ||
| 20260508182713 | 0 | 0.0 | 0.0 | 0.00 | 0.00 | 0.00 | 1010.0 | ||
| 20260508182210 | 0 | 0.0 | 0.0 | 0.00 | 0.00 | 0.00 | 1010.2 | ||
| 20260508181706 | 0 | 0.0 | 0.0 | 0.00 | 0.00 | 0.00 | 1010.2 | ||
| 20260508181203 | 0 | 0.0 | 0.0 | 0.00 | 0.00 | 0.00 | 1010.3 | ||
| 20260508180659 | 0 | 0.0 | 0.0 | 0.00 | 0.00 | 0.00 | 1010.2 | ||
| 20260508180157 | 0 | 0.0 | 0.0 | 0.00 | 0.00 | 0.00 | 1010.4 | ||
| 20260508175653 | 0 | 0.0 | 0.0 | 0.00 | 0.00 | 0.00 | 1010.2 | ||
| 20260508175149 | 0 | 0.0 | 0.0 | 0.00 | 0.00 | 0.00 | 1010.4 | ||
| 20260508174648 | 0 | 0.0 | 0.0 | 0.00 | 0.00 | 0.00 | 1010.7 | ||
| 20260508174143 | 0 | 0.0 | 0.0 | 0.00 | 0.00 | 0.00 | 1010.8 | ||
| 20260508173640 | 0 | 0.0 | 0.0 | 0.00 | 0.00 | 0.00 | 1010.9 | ||
| 20260508173137 | 0 | 0.0 | 0.0 | 0.00 | 0.00 | 0.00 | 1010.8 | ||
| 20260508172634 | 0 | 0.0 | 0.0 | 0.00 | 0.00 | 0.00 | 1010.6 | ||
| 20260508172131 | 0 | 0.0 | 0.0 | 0.00 | 0.00 | 0.00 | 1010.7 | ||
| 20260508171627 | 0 | 0.0 | 0.0 | 0.00 | 0.00 | 0.00 | 1010.7 | ||
| 20260508171123 | 0 | 0.0 | 0.0 | 0.00 | 0.00 | 0.00 | 1010.9 | ||
| 20260508170621 | 0 | 0.0 | 0.0 | 0.00 | 0.00 | 0.00 | 1011.2 | ||
| 20260508170119 | 0 | 0.0 | 0.0 | 0.00 | 0.00 | 0.00 | 1011.0 | ||
| 20260508165615 | 0 | 0.0 | 0.0 | 0.00 | 0.00 | 0.00 | 1011.2 | ||
| 20260508165112 | 0 | 0.0 | 0.0 | 0.00 | 0.00 | 0.00 | 1011.1 | ||
| 20260508164608 | 0 | 0.0 | 0.0 | 0.00 | 0.00 | 0.00 | 1011.3 | ||
| 20260508164105 | 0 | 0.0 | 0.0 | 0.00 | 0.00 | 0.00 | 1011.3 | ||
| 20260508163603 | 0 | 0.0 | 0.0 | 0.00 | 0.00 | 0.00 | 1011.5 | ||
| 20260508163059 | 0 | 0.0 | 0.0 | 0.00 | 0.00 | 0.00 | 1011.3 | ||
| 20260508162556 | 0 | 0.0 | 0.0 | 0.00 | 0.00 | 0.00 | 1011.5 | ||
| 20260508162053 | 0 | 0.0 | 0.0 | 0.00 | 0.00 | 0.00 | 1011.5 | ||
| 20260508161550 | 0 | 0.0 | 0.0 | 0.00 | 0.00 | 0.00 | 1011.6 | ||
| 20260508161048 | 0 | 0.0 | 0.0 | 0.00 | 0.00 | 0.00 | 1011.7 | ||
| 20260508160546 | 0 | 0.0 | 0.0 | 0.00 | 0.00 | 0.00 | 1011.9 | ||
| 20260508160043 | 0 | 0.0 | 0.0 | 0.00 | 0.00 | 0.00 | 1012.0 | ||
| 20260508155540 | 0 | 0.0 | 0.0 | 0.00 | 0.00 | 0.00 | 1012.1 | ||
| 20260508155036 | 0 | 0.0 | 0.0 | 0.00 | 0.00 | 0.00 | 1012.2 | ||
| 20260508154534 | 0 | 0.0 | 0.0 | 0.00 | 0.00 | 0.00 | 1012.0 | ||
| 20260508154031 | 0 | 0.0 | 0.0 | 0.00 | 0.00 | 0.00 | 1012.3 | ||
| 20260508153527 | 0 | 0.0 | 0.0 | 0.00 | 0.00 | 0.00 | 1012.0 | ||
| 20260508153024 | 0 | 0.0 | 0.0 | 0.00 | 0.00 | 0.00 | 1012.1 | ||
| 20260508152521 | 0 | 0.0 | 0.0 | 0.00 | 0.00 | 0.00 | 1011.6 | ||
| 20260508152016 | 0 | 0.0 | 0.0 | 0.00 | 0.00 | 0.00 | 1011.8 | ||
| 20260508151514 | 0 | 0.0 | 0.0 | 0.00 | 0.00 | 0.00 | 1011.9 | ||
| 20260508151010 | 0 | 0.0 | 0.0 | 0.00 | 0.00 | 0.00 | 1011.7 | ||
| 20260508150507 | 0 | 0.0 | 0.0 | 0.00 | 0.00 | 0.00 | 1011.8 | ||
| 20260508150003 | 0 | 0.0 | 0.0 | 0.00 | 0.00 | 0.00 | 1011.9 | ||
| 20260508145500 | 0 | 0.0 | 0.0 | 0.00 | 0.00 | 0.00 | 1011.8 | ||
| 20260508144956 | 0 | 0.0 | 0.0 | 0.00 | 0.00 | 0.00 | 1011.4 | ||
| 20260508144454 | 69 | 118 | 1.0 | 2.0 | 0.00 | 0.00 | 0.00 | 84 | 1011.5 |
| 20260508143951 | 69 | 118 | 1.0 | 2.0 | 0.00 | 0.00 | 0.00 | 84 | 1011.6 |
| 20260508143449 | 69 | 118 | 1.0 | 2.0 | 0.00 | 0.00 | 0.00 | 84 | 1011.8 |
| 20260508142944 | 69 | 118 | 1.0 | 2.0 | 0.00 | 0.00 | 0.00 | 84 | 1011.7 |
| 20260508142442 | 69 | 118 | 1.0 | 2.0 | 0.00 | 0.00 | 0.00 | 84 | 1011.6 |
| 20260508141938 | 69 | 118 | 1.0 | 2.0 | 0.00 | 0.00 | 0.00 | 84 | 1012.0 |
| 20260508141435 | 69 | 118 | 1.0 | 2.0 | 0.00 | 0.00 | 0.00 | 84 | 1011.8 |
| 20260508140933 | 69 | 118 | 1.0 | 2.0 | 0.00 | 0.00 | 0.00 | 84 | 1011.9 |
| 20260508140430 | 69 | 118 | 1.0 | 2.0 | 0.00 | 0.00 | 0.00 | 84 | 1011.4 |
| 20260508135925 | 69 | 118 | 1.0 | 2.0 | 0.00 | 0.00 | 0.00 | 84 | 1011.6 |
| 20260508135422 | 69 | 118 | 1.0 | 2.0 | 0.00 | 0.00 | 0.00 | 84 | 1011.6 |
| 20260508134918 | 69 | 81 | 2.0 | 3.0 | 0.00 | 0.00 | 0.00 | 84 | 1012.0 |
| 20260508134415 | 69 | 81 | 2.0 | 3.0 | 0.00 | 0.00 | 0.00 | 84 | 1012.1 |
| 20260508133912 | 69 | 81 | 2.0 | 3.0 | 0.00 | 0.00 | 0.00 | 84 | 1011.7 |
| 20260508133410 | 69 | 81 | 2.0 | 3.0 | 0.00 | 0.00 | 0.00 | 84 | 1011.6 |
| 20260508132906 | 69 | 81 | 2.0 | 3.0 | 0.00 | 0.00 | 0.00 | 84 | 1011.9 |
| 20260508132404 | 69 | 81 | 2.0 | 3.0 | 0.00 | 0.00 | 0.00 | 84 | 1012.0 |
| 20260508131900 | 69 | 81 | 2.0 | 3.0 | 0.00 | 0.00 | 0.00 | 84 | 1011.7 |
| 20260508131356 | 69 | 76 | 0.0 | 0.0 | 0.00 | 0.00 | 0.00 | 85 | 1012.1 |